516  
NZUS93 KARX 262110  
HRRWXR  
 
CURRENT HOURLY OBSERVATIONS ACROSS  
MUCH OF THE UPPER MISSISSIPPI VALLEY  
NATIONAL WEATHER SERVICE LA CROSSE WI  
400 PM CDT WED APR 26 2017  
 
   
..SOUTHEAST MINNESOTA
 
 
 
CITY SKY/WX TMP DP RH WIND PRES REMARKS  
ROCHESTER CLOUDY 39 38 96 NW16 29.50S WCI 30  
ROCHESTER/MAYO CLOUDY 39 38 97 W15 29.50F WCI 31  
WINONA CLOUDY 43 37 81 NW9 29.50S  
AUSTIN CLOUDY 39 36 87 NW17G23 29.53R WCI 30  
ALBERT LEA CLOUDY 39 36 87 NW12G22 29.53S WCI 32  
DODGE CENTER CLOUDY 37 37 100 NW18 29.51S WCI 27  
PRESTON CLOUDY 40 37 87 NW15 29.50F WCI 32  
OWATONNA CLOUDY 39 36 87 NW20 29.52F WCI 30  
FARIBAULT CLOUDY 39 36 87 NW14 29.53F WCI 31  

 
   
..ELSEWHERE IN MINNESOTA
 
 
 
CITY SKY/WX TMP DP RH WIND PRES REMARKS  
MINNEAPOLIS CLOUDY 40 32 73 NW14 29.55S WCI 32  
INTNL FALLS SNOW 27 22 81 NE10G21 29.71R VSB 1/2 WCI 17  
DULUTH FOG 34 31 88 N14 29.54F VSB 3/4 WCI 25  
RED WING CLOUDY 43 36 75 NW8G18 29.51S  
REDWOOD FALLS CLOUDY 38 33 82 N12G18 29.59F WCI 30  
MANKATO CLOUDY 39 34 82 NW18 29.56F WCI 30  
WORTHINGTON CLOUDY 36 32 85 NW18G25 29.62S WCI 26  
FAIRMONT CLOUDY 40 34 79 NW18G25 29.58S WCI 31  

 
   
..SOUTHWEST WISCONSIN
 
 
 
CITY SKY/WX TMP DP RH WIND PRES REMARKS  
LA CROSSE CLOUDY 48 42 80 W13 29.47F  
PRAIRIE DU CHI CLOUDY 49 44 82 W8 29.49R  
BOSCOBEL CLOUDY 52 49 89 W8 29.48R  
LONE ROCK CLOUDY 57 51 80 W13 29.45R  
PLATTEVILLE CLOUDY 52 52 100 SW13 29.50R  
FORT MC COY CLOUDY 45 44 99 W8 29.47S  
CAMP DOUGLAS CLOUDY 50 48 93 W14 29.44R FOG  
MAUSTON-NEW LI CLOUDY 53 51 95 NW10 29.43R FOG  
VIROQUA CLOUDY 46 46 100 W13 29.46S  
WIS DELLS CLOUDY 60 54 79 SW13 29.41S  

 
   
..ELSEWHERE IN WISCONSIN
 
 
 
CITY SKY/WX TMP DP RH WIND PRES REMARKS  
MILWAUKEE PTSUNNY 72 59 63 SW16 29.45F  
MADISON CLOUDY 62 54 74 SW8 29.44R  
GREEN BAY CLOUDY 65 62 90 S13 29.39F  
EAU CLAIRE CLOUDY 41 37 86 NW10 29.48R  
BLACK RVR FLS CLOUDY 45 44 97 NW7 29.47R  
MEDFORD CLOUDY 43 42 95 NW8 29.41R  
WAUSAU CLOUDY 54 51 90 W12 29.38R  
WIS RAPIDS CLOUDY 52 50 93 NW9 29.43R  
MARSHFIELD CLOUDY 45 42 89 W12 29.42R  
RICE LAKE CLOUDY 38 35 88 N12 29.51S WCI 30  

 
   
..NORTHEAST IOWA
 
 
 
CITY SKY/WX TMP DP RH WIND PRES REMARKS  
WATERLOO CLOUDY 46 38 73 W15 29.53S  
DUBUQUE CLOUDY 50 47 89 W12 29.50R  
DECORAH CLOUDY 45 41 87 NW10G20 29.48F  
MASON CITY CLOUDY 43 37 79 NW14 29.57R  
CHARLES CITY CLOUDY 45 39 81 NW15 29.53R  
OELWEIN CLOUDY 46 43 87 W20 29.52R  

 
   
..ELSEWHERE IN IOWA
 
 
 
CITY SKY/WX TMP DP RH WIND PRES REMARKS  
DES MOINES CLOUDY 48 38 68 NW16 29.58F  
IOWA CITY CLOUDY 51 43 74 W6 29.56R  
FORT DODGE CLOUDY 43 34 70 NW10 29.60S  
MARSHALLTOWN CLOUDY 48 39 71 NW17 29.55S  
CEDAR RAPIDS CLOUDY 50 45 83 W14 29.52S  

 
   
..NORTHERN ILLINOIS
 
 
 
CITY SKY/WX TMP DP RH WIND PRES REMARKS  
CHICAGO-OHARE CLOUDY 72 55 55 SW9G21 29.47F  
CHICAGO-MIDWAY PTSUNNY 76 55 48 SW14 29.47F  
MOLINE CLOUDY 52 47 83 W10 29.52F  
ROCKFORD CLOUDY 63 55 75 SW12 29.50S  
PEORIA LGT RAIN 59 58 96 NW6 29.51F FOG  

 
 
NOTE: "FAIR" INDICATES FEW OR NO CLOUDS BELOW 12,000 FEET WITH NO  
SIGNIFICANT WEATHER AND/OR OBSTRUCTIONS TO VISIBILITY. WIND  
SPEEDS ARE IN MILES-PER-HOUR.  
 
 
CLICK HERE TO GO TO PREVIOUS BULLETINS.

The Nexlab WI Page
The Nexlab IA Page
The Nexlab MN Page Main Text Page